Weather History for 93780 - March, 2014

Change the Weather History Date:

Tuesday, March 4, 2014

  Actual Average Record
Temperature  
Mean Temperature 50 °F -  
Max Temperature 53 °F 65 °F - ()
Min Temperature 48 °F 47 °F - ()
Degree Days  
Heating Degree Days 14    
Moisture  
Dew Point 42 °F    
Average Humidity 74    
Maximum Humidity 93    
Minimum Humidity 51    
Precipitation  
Precipitation 0.00 in - - ()
Sea Level Pressure  
Sea Level Pressure 29.78 in    
Wind  
Wind Speed 23 mph ()    
Max Wind Speed 39 mph    
Max Gust Speed 56 mph    
Visibility 5.5 miles    
Events Rain    
T = Trace of Precipitation, MM = Missing Value Source: Averaged Metar Reports

Daily Weather History Graph

Daily Weather History Graph

Search for Another Location

Airport or City:

Trip Planner

Search our weather history database for the weather conditions in past years. The results will help you decide how hot, cold, wet, or windy it might be!

Date:

Astronomy

Mar. 04, 2014 Rise Set
Actual Time 7:11 AM NZDT 8:10 PM NZDT
Civil Twilight 6:42 AM NZDT 8:39 PM NZDT
Nautical Twilight 6:07 AM NZDT 9:14 PM NZDT
Astronomical Twilight 5:31 AM NZDT 9:50 PM NZDT
Moon 10:16 AM NZDT (3/4) 9:30 PM NZDT (3/4)
Length of Visible Light 13h 57m
Length of Day
12h 59m
Waxing Crescent, 9% of the Moon is Illuminated
Mar 4
Waxing Crescent
Mar 9
First Quarter
Mar 17
Full
Mar 24
Last Quarter
Mar 31
New

Hourly Weather History & Observations

Time (NZDT) Temp. Dew Point Humidity Pressure Visibility Wind Dir Wind Speed Gust Speed Precip Events Conditions
12:00 AM 51.8 °F 35.6 °F 54% 29.77 in 6.2 mi SW 19.6 mph - N/A   Scattered Clouds
12:30 AM 50.0 °F 35.6 °F 58% 29.77 in 6.2 mi WSW 15.0 mph 27.6 mph N/A   Unknown
1:00 AM 51.8 °F 35.6 °F 54% 29.77 in 6.2 mi WSW 20.7 mph - N/A   Mostly Cloudy
1:30 AM 51.8 °F 35.6 °F 54% 29.77 in 6.2 mi WSW 21.9 mph - N/A   Mostly Cloudy
2:00 AM 51.8 °F 35.6 °F 54% 29.77 in 6.2 mi WSW 17.3 mph - N/A   Overcast
2:30 AM 51.8 °F 35.6 °F 54% 29.77 in 6.2 mi WSW 20.7 mph - N/A   Mostly Cloudy
3:00 AM 51.8 °F 35.6 °F 54% 29.77 in 6.2 mi WSW 16.1 mph 28.8 mph N/A   Overcast
3:30 AM 51.8 °F 35.6 °F 54% 29.77 in 6.2 mi WSW 18.4 mph - N/A Rain Light Rain Showers
4:00 AM 51.8 °F 35.6 °F 54% 29.77 in 6.2 mi WSW 17.3 mph - N/A   Mostly Cloudy
4:30 AM 51.8 °F 37.4 °F 58% 29.74 in 6.2 mi WSW 18.4 mph 31.1 mph N/A   Mostly Cloudy
5:00 AM 51.8 °F 37.4 °F 58% 29.74 in 6.2 mi WSW 18.4 mph - N/A   Overcast
5:30 AM 51.8 °F 37.4 °F 58% 29.74 in 6.2 mi WSW 19.6 mph - N/A   Overcast
6:00 AM 51.8 °F 37.4 °F 58% 29.71 in 6.2 mi WSW 29.9 mph 42.6 mph N/A   Mostly Cloudy
6:30 AM 51.8 °F 37.4 °F 58% 29.71 in 6.2 mi WSW 28.8 mph 41.4 mph N/A   Mostly Cloudy
7:00 AM 53.6 °F 35.6 °F 51% 29.71 in 6.2 mi WSW 29.9 mph 44.9 mph N/A   Overcast
7:30 AM 51.8 °F 37.4 °F 58% 29.74 in 6.2 mi SW 27.6 mph 41.4 mph N/A   Overcast
8:00 AM 51.8 °F 37.4 °F 58% 29.74 in 6.2 mi SW 25.3 mph - N/A Rain Light Rain Showers
8:30 AM 51.8 °F 37.4 °F 58% 29.74 in 6.2 mi WSW 29.9 mph - N/A Rain Light Rain Showers
9:00 AM 51.8 °F 39.2 °F 62% 29.77 in 6.2 mi SW 27.6 mph 42.6 mph N/A Rain Light Rain Showers
9:30 AM 51.8 °F 39.2 °F 62% 29.77 in 6.2 mi WSW 27.6 mph 41.4 mph N/A   Light Drizzle
10:00 AM 51.8 °F 41.0 °F 67% 29.77 in 6.2 mi SW 39.1 mph 55.2 mph N/A Rain Light Rain Showers
10:30 AM 51.8 °F 39.2 °F 62% 29.77 in 6.2 mi SW 38.0 mph 56.4 mph N/A   Overcast
11:00 AM 51.8 °F 41.0 °F 67% 29.77 in 6.2 mi SW 32.2 mph 44.9 mph N/A Rain Light Rain Showers
11:30 AM 50.0 °F 41.0 °F 71% 29.77 in 6.2 mi SW 34.5 mph 47.2 mph N/A Rain Light Rain
12:00 PM 51.8 °F 42.8 °F 71% 29.77 in 6.2 mi WSW 34.5 mph 47.2 mph N/A Rain Light Rain
12:30 PM 50.0 °F 42.8 °F 76% 29.77 in 6.2 mi WSW 35.7 mph 50.6 mph N/A Rain Light Rain Showers
1:00 PM 50.0 °F 44.6 °F 82% 29.77 in 6.2 mi WSW 35.7 mph 51.8 mph N/A Rain Light Rain Showers
1:30 PM 48.2 °F 44.6 °F 87% 29.77 in 5.6 mi WSW 32.2 mph - N/A Rain Light Rain
2:00 PM 50.0 °F 46.4 °F 87% 29.77 in 4.3 mi WSW 28.8 mph 40.3 mph N/A Rain Light Rain
2:30 PM 50.0 °F 46.4 °F 87% 29.77 in 5.6 mi SW 31.1 mph 46.0 mph N/A Rain Light Rain
3:00 PM 48.2 °F 46.4 °F 93% 29.80 in - SW 32.2 mph 47.2 mph N/A Rain Rain
3:30 PM 48.2 °F 46.4 °F 93% 29.80 in - SW 28.8 mph 42.6 mph N/A Rain Rain
4:00 PM 48.2 °F 46.4 °F 93% 29.80 in 3.1 mi SW 29.9 mph 41.4 mph N/A Rain Rain
4:30 PM 48.2 °F 46.4 °F 93% 29.80 in - SW 29.9 mph 42.6 mph N/A Rain Rain
5:00 PM 48.2 °F 46.4 °F 93% 29.80 in 3.1 mi SW 28.8 mph 43.7 mph N/A Rain Rain
5:30 PM 48.2 °F 46.4 °F 93% 29.80 in 3.7 mi SW 26.5 mph - N/A Rain Rain
6:00 PM 48.2 °F 46.4 °F 93% 29.80 in 3.1 mi SW 27.6 mph 43.7 mph N/A Rain Light Rain
6:30 PM 48.2 °F 46.4 °F 93% 29.80 in 3.7 mi SW 27.6 mph - N/A Rain Rain
7:00 PM 48.2 °F 46.4 °F 93% 29.80 in 4.3 mi SW 27.6 mph - N/A Rain Light Rain
7:30 PM 48.2 °F 46.4 °F 93% 29.80 in 4.3 mi SW 27.6 mph - N/A Rain Light Rain
8:00 PM 48.2 °F 46.4 °F 93% 29.80 in - SW 26.5 mph - N/A Rain Light Rain Showers
8:30 PM 48.2 °F 46.4 °F 93% 29.80 in - SW 31.1 mph 42.6 mph N/A Rain Rain Showers
9:00 PM 48.2 °F 46.4 °F 93% 29.83 in - SW 31.1 mph 47.2 mph N/A Rain Rain Showers
9:30 PM 48.2 °F 46.4 °F 93% 29.83 in - SW 28.8 mph 43.7 mph N/A Rain Light Rain
10:00 PM 48.2 °F 46.4 °F 93% 29.83 in - SW 31.1 mph - N/A Rain Light Rain
10:30 PM 48.2 °F 46.4 °F 93% 29.83 in - SW 28.8 mph 46.0 mph N/A Rain Light Rain
11:00 PM 48.2 °F 46.4 °F 93% 29.86 in 3.1 mi SW 27.6 mph 43.7 mph N/A Rain Light Rain
11:30 PM 48.2 °F 46.4 °F 93% 29.86 in 3.1 mi SW 28.8 mph 40.3 mph N/A Rain Rain